星链-1207 (STARLINK-1207 )

导读 | 星芒AI

STARLINK-1207 是 SpaceX 星链计划中的一颗低轨通信卫星,属于第十二批发射的星链卫星组。该卫星于2023年发射,部署在约550公里高度的近地轨道,旨在为全球用户提供高速互联网服务。作为星链星座的一部分,STARLINK-1207 采用先进推进系统和激光通信技术,提升网络连接效率与稳定性,支持偏远地区通信需求,助力实现全球宽带覆盖目标。

基本信息
目录编号:
45380
目录名称:
STARLINK-1207
国际标识:
2020-019W
轨道中心:
EARTH
卫星名称:
星链-1207
卫星全名:
星链-1207 (STARLINK-1207 )
卫星状态:
已陨落 最后检测时间 2025-02-12
发射日期:
2020-03-18 UTC
国别 :
美国 (US)
星等 :
--
轨道信息
数据来源 国际轨道数据
星历时间: 2025-02-12T02:59:30+0800
轨道信息已过期259天
半长轴: 6538.43km
偏心率: 0.000183
轨道倾角: 53.027°
近地点辐角 147.750°
升交点赤经 56.098°
平近点角 1.238°
近地点: 159.098km
远地点: 161.492km
周期: 87.694分钟
每日圈数: 16.420734
详细信息
固有亮度:
5
最大亮度:
2.5
卫星平台:
Starlink V1.0
覆盖范围:
全球
运营商:
太空探索技术公司
运营商所在国:
美国
制造商(研发单位):
太空探索技术公司
制造商所在国:
美国
使用方式:
暂无
卫星简介
星链(Starlink)计划是由太空探索技术公司(SpaceX)提出的一个巨型低轨卫星互联网星座项目,计划在2019年至2024年间在太空搭建由约1.2万颗卫星组成的“星链”网络,其中1584颗将部署在地球上空550千米处的近地轨道,并从2020年开始工作。该卫星仍在工作。